Wind_Speed
48 48 47 45 47 44 48 44 51 53 52 55 59 60 63 63 63 65 66 68 69 70 70 71 71 71 72 72 74 76 79 81 84 87 90 94 96 98
48 47 48 44 46 47 45 51 56 57 58 61 66 65 64 65 67 68 69 70 71 71 71 71 72 73 76 79 82 85 88 91 94 97 101 103 103 103
46 51 45 51 48 49 53 57 56 58 64 69 68 65 67 68 68 70 72 73 73 72 74 75 78 81 85 89 91 95 98 101 103 103 101 93 89 85
47 46 54 44 54 60 62 64 60 69 70 66 67 67 68 70 71 72 73 73 75 77 81 84 87 91 94 97 100 103 103 93 82 74 68 64 59 56
44 45 51 52 59 58 64 67 68 69 67 67 67 69 71 72 72 71 73 76 80 86 90 93 98 102 105 102 97 85 74 66 60 58 58 57 57 60
41 51 51 57 55 57 61 67 70 67 65 67 70 71 70 70 72 74 75 82 88 95 99 101 101 96 86 78 70 67 65 64 62 60 58 57 56 55
49 54 57 56 61 65 65 64 64 65 67 69 68 68 70 73 76 79 83 89 97 100 96 86 79 70 69 71 72 71 70 69 66 63 60 59 57 55
48 52 51 55 59 61 62 63 66 67 65 67 68 72 75 79 84 89 93 98 92 75 69 63 67 68 72 73 73 72 71 69 66 63 59 57 56 55
54 60 61 63 60 61 64 65 65 65 68 71 74 78 82 87 91 94 91 80 66 63 68 65 72 73 74 70 65 62 60 59 56 53 53 53 53 52
54 58 58 60 65 67 64 62 65 69 73 77 82 85 90 93 89 78 63 58 61 69 76 74 78 72 65 56 55 54 53 51 47 46 46 47 48 48
52 55 60 61 62 61 64 68 71 76 80 84 88 90 87 73 61 56 60 65 68 74 76 78 68 60 53 44 45 49 49 45 41 40 39 38 37 40
57 59 61 62 64 67 70 73 76 80 85 89 88 76 57 51 56 62 68 73 76 71 68 69 58 51 41 33 36 41 43 42 39 35 30 26 26 29
54 57 61 64 68 71 75 78 81 85 87 80 57 42 46 53 60 67 70 68 68 68 59 54 41 34 30 23 26 32 36 39 38 35 34 32 27 25
57 61 66 70 75 79 81 85 88 82 62 38 34 41 47 56 62 60 59 61 60 54 44 40 28 22 19 19 20 24 30 31 33 36 37 37 34 27
64 70 75 80 83 87 89 84 61 36 24 29 36 43 51 52 51 49 50 49 45 44 38 27 21 19 20 18 16 23 26 29 37 35 37 35 29 22
74 80 85 88 89 80 62 34 17 17 24 31 38 45 43 44 43 41 40 40 35 31 34 26 22 21 20 21 19 19 22 18 28 31 22 19 12 16
82 85 83 73 58 33 14 7 13 20 27 33 41 40 37 38 38 36 36 36 34 29 27 30 32 29 29 29 21 13 8 17 20 15 12 12 11 10
73 70 58 36 14 5 6 11 19 24 31 34 42 35 33 33 34 36 34 33 32 30 26 24 24 22 25 27 19 12 17 18 16 17 15 10 16 19
57 41 23 11 10 9 11 15 23 27 33 34 41 35 31 33 33 32 32 30 30 29 27 24 25 23 20 19 26 28 19 14 17 20 21 17 15 21
28 20 15 10 9 11 14 19 25 29 33 35 40 38 32 31 31 29 30 28 27 26 26 27 28 29 27 24 20 23 28 19 14 13 18 21 14 17
18 19 15 11 12 15 18 21 25 28 31 34 36 39 36 33 32 31 31 31 30 29 29 31 34 35 31 27 23 20 22 18 8 10 15 21 24 27
19 20 18 16 18 19 22 23 26 27 29 33 35 38 39 35 33 32 33 32 31 32 31 32 34 32 30 27 21 17 18 18 18 17 18 20 24 30
20 21 21 20 21 22 23 23 24 25 27 30 34 35 37 37 35 35 34 32 31 31 30 33 33 31 28 25 20 18 17 17 19 24 28 31 34 39
Wind_Direction
279 282 279 276 290 288 289 287 290 288 291 296 296 293 294 294 294 295 295 294 293 291 290 289 289 288 288 287 286 285 285 284 283 283 283 282 280 278
279 279 284 276 286 290 291 287 291 289 289 295 297 295 295 295 295 294 293 293 292 290 289 288 288 287 287 287 287 287 286 285 283 283 283 282 280 279
279 276 283 281 289 282 290 295 293 293 296 295 295 296 295 294 293 294 293 292 291 291 291 291 291 291 290 290 290 289 288 288 286 284 284 282 280 277
276 268 278 273 287 286 279 291 292 298 297 297 296 294 293 294 293 293 293 293 293 293 294 294 293 293 293 292 291 291 291 289 286 285 283 280 275 268
283 272 285 282 282 286 285 286 297 297 297 296 294 294 294 294 294 294 294 295 297 297 296 297 296 295 296 296 294 291 289 287 285 281 278 275 270 268
278 278 280 283 281 287 292 295 295 295 294 294 294 295 295 295 295 296 298 300 301 299 299 299 299 297 294 292 290 289 287 285 283 280 276 274 272 270
286 285 280 282 283 291 292 294 295 294 293 294 295 295 295 296 298 299 299 300 301 301 299 298 295 292 293 294 293 292 289 287 284 280 275 270 268 267
290 286 287 292 291 292 293 293 293 294 295 295 297 297 299 299 299 299 300 302 303 297 294 294 296 296 296 297 295 292 289 286 281 277 272 269 266 262
285 285 294 294 294 294 295 296 296 297 296 297 298 299 298 298 302 305 305 303 299 295 295 297 296 298 298 298 295 290 287 283 279 277 274 270 267 261
284 296 295 294 295 296 297 298 297 297 297 299 300 300 302 305 306 305 299 298 299 298 298 298 297 298 297 295 291 288 285 284 283 279 275 270 266 261
294 294 294 294 296 296 297 299 299 300 301 300 301 304 307 306 303 301 302 303 302 301 300 299 300 299 296 291 286 285 284 285 285 282 278 275 270 262
298 298 297 298 299 300 300 300 300 300 300 302 306 307 305 305 307 308 306 306 306 304 302 302 303 298 292 280 281 281 284 288 288 289 289 281 268 257
297 299 300 300 299 299 299 300 300 300 303 307 304 304 309 311 311 311 312 314 314 313 311 310 311 303 298 281 273 278 280 282 291 296 296 295 286 268
302 302 300 300 300 300 300 300 301 304 305 302 307 312 314 315 315 317 320 320 320 317 318 318 323 316 306 290 277 275 279 286 289 289 290 289 289 280
308 306 304 302 300 298 300 302 305 304 306 314 317 319 319 318 320 324 328 331 331 329 335 345 345 338 323 306 284 275 277 287 290 288 286 290 293 281
312 309 307 302 300 302 305 307 307 319 323 322 324 323 322 323 325 328 333 341 344 341 342 354 350 343 334 321 310 301 302 290 279 295 311 312 290 265
315 311 308 308 307 311 317 337 336 334 332 330 330 328 326 325 328 332 336 341 346 351 346 343 343 342 338 342 345 343 291 294 308 311 321 316 300 274
318 317 318 322 330 38 29 356 348 339 338 334 337 332 328 328 332 334 339 340 345 348 352 348 343 340 336 339 1 356 339 328 323 316 314 306 300 286
324 334 350 30 58 34 8 352 343 340 342 339 342 338 332 331 334 334 337 340 340 344 349 351 347 344 340 329 322 333 347 324 313 305 309 314 301 293
346 14 21 27 15 359 345 340 340 341 345 344 347 344 337 335 339 338 336 338 340 339 338 339 339 338 334 331 321 312 321 332 322 302 292 296 292 272
349 349 346 341 335 331 329 331 337 340 343 347 347 349 344 339 341 340 341 339 337 336 339 339 339 339 340 343 342 332 322 331 319 280 279 280 284 285
337 341 334 325 321 321 320 322 330 337 343 349 349 350 351 343 341 342 341 340 338 335 339 339 338 339 343 347 347 334 326 323 319 316 305 290 280 275
333 341 339 329 326 325 324 323 328 334 341 349 352 350 351 352 345 342 340 339 338 340 341 342 340 341 344 347 350 344 338 331 324 317 308 303 300 297
Height
5701 5699 5697 5694 5694 5689 5687 5684 5680 5677 5674 5668 5661 5656 5651 5647 5642 5638 5633 5628 5622 5617 5612 5607 5602 5597 5593 5589 5585 5581 5577 5573 5568 5564 5561 5557 5552 5548
5691 5689 5685 5684 5682 5678 5675 5671 5667 5662 5659 5654 5648 5642 5637 5632 5626 5621 5615 5609 5603 5597 5591 5587 5581 5576 5571 5567 5562 5557 5551 5546 5540 5535 5528 5522 5517 5512
5679 5676 5673 5670 5669 5665 5661 5657 5652 5647 5644 5639 5632 5626 5621 5615 5608 5602 5595 5590 5583 5576 5570 5565 5559 5553 5547 5540 5534 5527 5520 5513 5506 5498 5491 5485 5480 5476
5668 5665 5661 5659 5655 5652 5647 5642 5637 5632 5628 5623 5616 5610 5604 5596 5590 5584 5577 5570 5562 5554 5546 5540 5534 5526 5519 5511 5503 5494 5485 5476 5469 5463 5458 5455 5453 5452
5655 5651 5650 5647 5643 5639 5634 5629 5622 5617 5610 5606 5600 5593 5586 5577 5572 5565 5559 5551 5541 5530 5521 5515 5505 5494 5485 5476 5467 5458 5452 5447 5445 5442 5439 5437 5435 5434
5645 5641 5638 5635 5631 5627 5620 5613 5608 5601 5594 5587 5581 5574 5567 5559 5552 5546 5541 5529 5520 5504 5494 5487 5474 5461 5450 5443 5438 5433 5429 5426 5424 5422 5419 5416 5415 5414
5634 5631 5628 5623 5618 5612 5606 5598 5591 5585 5578 5570 5564 5557 5549 5541 5532 5524 5516 5507 5494 5476 5466 5456 5446 5436 5427 5419 5413 5408 5405 5403 5401 5399 5397 5396 5396 5396
5623 5619 5614 5609 5604 5597 5591 5583 5576 5569 5560 5553 5546 5538 5529 5519 5510 5500 5491 5479 5470 5448 5438 5435 5422 5418 5407 5399 5390 5383 5379 5376 5373 5373 5373 5373 5374 5375
5611 5607 5601 5594 5588 5582 5574 5566 5559 5549 5540 5534 5527 5517 5509 5497 5489 5476 5462 5450 5440 5428 5417 5420 5403 5398 5385 5376 5365 5359 5355 5351 5351 5352 5352 5353 5353 5354
5598 5592 5587 5580 5573 5566 5559 5551 5543 5532 5524 5514 5505 5496 5485 5473 5461 5450 5439 5433 5426 5412 5392 5394 5382 5376 5367 5358 5346 5340 5336 5335 5336 5336 5335 5334 5333 5335
5585 5580 5574 5566 5558 5551 5544 5535 5525 5513 5504 5494 5484 5473 5462 5449 5438 5432 5423 5414 5407 5393 5373 5359 5359 5352 5347 5343 5333 5323 5320 5321 5322 5321 5319 5318 5319 5319
5572 5565 5557 5550 5543 5534 5524 5516 5507 5497 5486 5473 5461 5450 5440 5432 5423 5414 5404 5395 5381 5373 5352 5343 5338 5327 5329 5328 5322 5312 5310 5309 5309 5308 5307 5307 5307 5308
5560 5552 5544 5534 5525 5515 5506 5497 5488 5478 5465 5455 5443 5436 5429 5421 5410 5398 5384 5372 5361 5345 5329 5319 5320 5314 5311 5312 5312 5305 5302 5299 5298 5296 5294 5294 5295 5296
5548 5539 5529 5518 5507 5496 5486 5476 5466 5456 5447 5440 5436 5429 5421 5410 5398 5386 5373 5360 5345 5330 5323 5312 5308 5305 5304 5303 5301 5300 5295 5293 5291 5289 5286 5285 5284 5285
5532 5521 5510 5497 5485 5473 5463 5453 5444 5438 5436 5433 5427 5419 5410 5399 5388 5378 5366 5352 5338 5323 5314 5309 5305 5303 5299 5297 5296 5294 5292 5291 5281 5280 5278 5276 5275 5274
5513 5499 5485 5471 5457 5446 5439 5435 5433 5433 5430 5426 5419 5410 5400 5390 5380 5371 5362 5350 5338 5326 5314 5310 5305 5301 5297 5293 5290 5288 5284 5282 5277 5272 5271 5269 5268 5267
5492 5475 5457 5443 5433 5429 5428 5430 5431 5429 5425 5419 5411 5401 5392 5384 5374 5365 5356 5347 5337 5329 5320 5311 5303 5298 5293 5287 5285 5281 5279 5276 5272 5270 5268 5267 5265 5265
5470 5453 5438 5428 5425 5426 5429 5430 5428 5424 5419 5412 5403 5394 5386 5378 5370 5361 5353 5344 5336 5328 5321 5313 5307 5301 5294 5288 5284 5281 5276 5274 5271 5268 5266 5266 5263 5261
5456 5443 5434 5431 5430 5430 5429 5427 5424 5420 5414 5407 5397 5388 5381 5373 5366 5358 5351 5343 5335 5327 5320 5313 5307 5301 5296 5290 5282 5276 5276 5273 5269 5266 5263 5262 5261 5257
5452 5444 5440 5437 5434 5432 5429 5425 5421 5416 5409 5401 5393 5384 5376 5369 5362 5355 5347 5340 5334 5327 5320 5312 5305 5299 5293 5288 5283 5276 5270 5267 5265 5263 5260 5257 5255 5254
5453 5447 5443 5439 5435 5431 5427 5423 5419 5413 5406 5399 5391 5381 5372 5366 5358 5351 5344 5337 5330 5324 5317 5310 5302 5294 5288 5282 5278 5272 5267 5262 5260 5259 5256 5253 5250 5246
5453 5447 5442 5438 5434 5429 5425 5420 5415 5410 5403 5396 5387 5379 5370 5362 5356 5348 5341 5335 5328 5321 5315 5308 5300 5293 5286 5280 5275 5270 5265 5261 5257 5254 5251 5248 5244 5241
5450 5444 5440 5435 5430 5426 5421 5417 5412 5407 5401 5393 5386 5378 5370 5361 5353 5346 5340 5332 5325 5319 5312 5306 5297 5290 5283 5278 5273 5269 5264 5260 5256 5249 5243 5237 5231 5223